Regional Weather Roundup
Issued by NWS

Home | Current Version | Previous Version | Graphics & Text | Print | Product List | Glossary On
Versions: 1 2 3 4 5 6 7 8 9 10 11 12 13 14 15 16 17 18 19 20 21 22 23 24 25 26 27 28 29 30 31 32 33 34 35 36 37 38 39 40 41 42 43 44 45 46 47 48 49 50
048
ASUS43 KMPX 261310
RWRMN
WEATHER ROUNDUP FOR MINNESOTA
NATIONAL WEATHER SERVICE TWIN CITIES/CHANHASSEN MN
800 AM CDT TUE JUL 26 2016


NOTE: "FAIR" INDICATES FEW OR NO CLOUDS BELOW 12,000 FEET WITH NO
SIGNIFICANT WEATHER AND/OR OBSTRUCTIONS TO VISIBILITY. N/A MEANS
CURRENT SKY AND/OR WEATHER CONDITIONS ARE NOT AVAILABLE.

MNZ060>063-068>070-261400-
   Twin Cities Metro

CITY           SKY/WX    TMP DP  RH WIND       PRES   REMARKS
TWIN CITIES    MOSUNNY   75  65  70 SW7       30.05S
ST PAUL        SUNNY     74  67  78 CALM      30.05S
CRYSTAL        MOSUNNY   74  64  71 SW7       30.03S
BLAINE         MOSUNNY   77  66  69 SW8       30.04S
LAKEVILLE      MOSUNNY   72  68  88 CALM      30.06S
EDEN PRAIRIE   MOSUNNY   73  66  78 SW5       30.04S
LAKEVILLE      MOSUNNY   72  68  88 CALM      30.06S
SOUTH ST PAUL  SUNNY     73  65  76 CALM      30.05S
LAKE ELMO      FAIR      72  68  88 S3        30.06S
$$
MNZ001>005-007-008-013>017-022>024-027-028-261400-
   Northwest Minnesota

CITY           SKY/WX    TMP DP  RH WIND       PRES   REMARKS
BEMIDJI        CLOUDY    70  64  83 CALM      29.98R
HALLOCK        SUNNY     68  64  88 N6        29.96R
ROSEAU         SUNNY     66  61  82 NE5       29.98R
WARROAD        SUNNY     70  64  83 CALM      29.98R
THIEF RVR FALL CLOUDY    71  64  78 E7        29.97R
CROOKSTON      MOSUNNY   72  66  83 SE7       29.96R
FOSSTON        CLOUDY    70  64  83 CALM      29.99R
DETROIT LAKES  LGT RAIN  68  63  83 W3        29.99F
MOORHEAD       TSTM      68  64  88 CALM      29.98R
PARK RAPIDS    CLOUDY    71  64  78 SW8       29.99R
MAHNOMEN       FAIR      68  64  84 SW3       29.97S
$$
MNZ006-009>011-018-025>026-261400-
   North Central Minnesota

CITY           SKY/WX    TMP DP  RH WIND       PRES   REMARKS
BAUDETTE       SUNNY     69  65  86 CALM      29.97S
FLAG ISLAND    MOSUNNY   72  63  73 NE9       29.97R
INTL FALLS     SUNNY     69  65  86 CALM      29.98R
WASKISH        SUNNY     70  66  88 CALM      29.98R
BIG FORK       SUNNY     70  64  83 CALM      29.98S
LONGVILLE      CLOUDY    72  64  78 S5        30.00R
GRAND RAPIDS   MOSUNNY   72  65  78 CALM      30.01S
CRANE LAKE     SUNNY     64  64 100 CALM      29.99R
ORR            CLOUDY    66  64  94 CALM      29.96S
COOK           PTSUNNY   66  64  94 CALM      29.99S
WALKER         PTSUNNY   70  64  80 SW5       29.99R
$$
MNZ012-019>021-037-261400-
   Northeast Minnesota

CITY           SKY/WX    TMP DP  RH WIND       PRES   REMARKS
DULUTH         CLOUDY    72  65  78 W6        30.00S
ELY            CLOUDY    66  64  94 CALM      29.98S
HIBBING        SUNNY     68  65  90 SE3       29.99S
EVELETH        SUNNY     70  65  82 CALM      30.00F
DULUTH HARBOR  CLOUDY    72  66  83 NE5       29.99R
TWO HARBORS    CLOUDY    73  68  83 CALM      29.98F
SILVER BAY     CLOUDY    73  66  78 CALM      29.97S
GRAND MARAIS     N/A     65  63  93 CALM      29.95F
G MARAIS ARPRT CLOUDY    63  57  82 CALM      30.02S
$$
MNZ029>031-032-039>041-046>048-054>057-064-261400-
   West Central Minnesota

CITY           SKY/WX    TMP DP  RH WIND       PRES   REMARKS
FERGUS FALLS   CLOUDY    70  64  83 S7        29.99F
WHEATON        CLOUDY    73  66  78 S6        30.00F
MORRIS         MOSUNNY   68  64  88 SE6       30.01S
ALEXANDRIA     MOSUNNY   70  62  76 SW9       30.03F
ELBOW LAKE     FAIR      69  64  85 SE6       30.00S
WADENA         CLOUDY    66  64  94 SW6       30.00S
GLENWOOD       MOSUNNY   70  64  83 SW9       30.04S
APPLETON       MOSUNNY   72  63  73 CALM      30.02R
BENSON         SUNNY     70  63  78 CALM      30.03R
ORTONVILLE     MOSUNNY   73  63  68 CALM      30.02R
MADISON        SUNNY     73  64  73 N3        30.01R
WILLMAR        FAIR      72  66  83 SW3       30.04S
$$
MNZ033>034-036-042>043-049>051-058-059-261400-
   Central Minnesota

CITY           SKY/WX    TMP DP  RH WIND       PRES   REMARKS
ST CLOUD       MOSUNNY   69  67  93 CALM      30.03R
SAUK CENTRE    PTSUNNY   70  64  83 SW7       30.03S
PAYNESVILLE    MOSUNNY   71  65  83 SW5       30.04S
AITKIN         CLOUDY    75  63  64 SW6       29.98S
PINE RIVER     LGT RAIN  70  64  83 CALM      30.02S
BRAINERD       CLOUDY    72  64  76 SW10      29.99S
STAPLES        CLOUDY    70  63  78 SW7       30.00R
LONG PRAIRIE   FAIR      70  63  78 S7        30.02F
LITTLE FALLS   CLOUDY    70  63  78 S5        30.02S
LITCHFIELD     SUNNY     73  68  83 CALM      30.04S
BUFFALO        MOSUNNY   72  65  77 S3        30.05S
MAPLE LAKE     MOSUNNY   72  67  85 CALM      30.04F
HUTCHINSON     SUNNY     72  67  86 S6        30.05S
$$
MNZ037-044-045-052-053-261400-
   East Central Minnesota

CITY           SKY/WX    TMP DP  RH WIND       PRES   REMARKS
PRINCETON      MOSUNNY   73  66  78 S3        30.03S
MORA           SUNNY     70  64  83 SW7       30.03F
CAMBRIDGE      MOSUNNY   75  63  64 S5        30.02S
RUSH CITY      PTSUNNY   71  65  82 S7        30.03S
MOOSE LAKE     SUNNY     70  64  83 SW7       29.99S
HINCKLEY       PTSUNNY   70  68  94 S5        30.02S
CLOQUET        CLOUDY    72  63  73 SW6       29.99F
MCGREGOR       MOSUNNY   73  64  73 SW5       30.00S
$$
MNZ071>073-080-081-089-090-097-098-261400-
   Southwest Minnesota

CITY           SKY/WX    TMP DP  RH WIND       PRES   REMARKS
MONTEVIDEO     SUNNY     73  66  78 SW6       30.03R
GRANITE FALLS  SUNNY     72  68  87 S8        30.03F
CANBY          SUNNY     76  64  65 SW14G21   30.00F
MARSHALL       SUNNY     75  64  68 SW17      30.01F
REDWOOD FALLS  SUNNY     72  64  76 SW9       30.03S
OLIVIA         SUNNY     70  64  83 S8        30.02F
PIPESTONE      SUNNY     70  64  83 SW7       30.08S
WINDOM         SUNNY     72  64  78 SW10      30.08R
WORTHINGTON    SUNNY     72  65  78 SW10      30.09S
JACKSON        SUNNY     72  63  73 SW7       30.09S
TRACY          SUNNY     73  66  78 SW15      30.05S
SLAYTON        SUNNY     70  65  84 SW6       30.08F HAZE
$$
MNZ065>067-074>077-082>085-091>093-261400-
   South Central Minnesota

CITY           SKY/WX    TMP DP  RH WIND       PRES   REMARKS
MANKATO        SUNNY     70  63  78 S5        30.07S
NEW ULM        SUNNY     72  66  83 S7        30.05S
ST JAMES       SUNNY     66  61  82 CALM      30.07S
FAIRMONT       SUNNY     72  64  78 SW6       30.07S
GLENCOE        SUNNY     71  68  90 S5        30.04S
FARIBAULT      SUNNY     72  66  83 CALM      30.08S
OWATONNA       SUNNY     72  64  78 S7        30.09R
WASECA         SUNNY     70  64  83 S5        30.10R
ALBERT LEA     SUNNY     72  66  83 SW5       30.09S
$$
MNZ078>079-086>088-094>096-261400-
   Southeast Minnesota

CITY           SKY/WX    TMP DP  RH WIND       PRES   REMARKS
ROCHESTER      SUNNY     72  67  84 SW6       30.10R
RED WING       SUNNY     73  66  78 CALM      30.05S
STANTON        SUNNY     72  66  83 SW5       30.05F
DODGE CENTER   SUNNY     72  64  78 SW6       30.10R
WINONA         SUNNY     70  64  83 CALM      30.07S
AUSTIN         SUNNY     68  64  88 CALM      30.10S
PRESTON        SUNNY     69  64  83 CALM      30.11R
$$
ABBREVIATIONS USED IN REMARKS
   TC - TEMPERATURES IN CELSIUS
  WCI - WIND CHILL INDEX
   HX - HEAT INDEX
  VSB - VISIBILITY
$$




USA.gov is the U.S. government's official web portal to all federal, state and local government web resources and services.